Durango, CO

2:23 PM MDT on April 26, 2017 (GMT -0600)
Durango-La Plata County

Weather History for KDRO - December, 2014

Change the Weather History Date:

Saturday, December 27, 2014

  Actual Average Record
Temperature  
Mean Temperature 12 °F 24 °F  
Max Temperature 23 °F 37 °F 62 °F (1980)
Min Temperature 0 °F 11 °F -16 °F (2008)
Degree Days  
Heating Degree Days 53 41  
Month to date heating degree days 900 1037  
Since 1 July heating degree days 2311 2710  
Cooling Degree Days 0 0  
Month to date cooling degree days 0 0  
Year to date cooling degree days 305 243  
Moisture  
Dew Point 5 °F    
Average Humidity 76    
Maximum Humidity 92    
Minimum Humidity 59    
Precipitation  
Precipitation 0.00 in 0.05 in 1.04 in (1984)
Month to date precipitation 0.70 0.94  
Year to date precipitation 12.05 15.84  
Sea Level Pressure  
Sea Level Pressure 30.32 in    
Wind  
Wind Speed 3 mph (North)    
Max Wind Speed 10 mph    
Max Gust Speed 11 mph    
Visibility 10 miles    
Events      
T = Trace of Precipitation, MM = Missing Value Source: NWS Daily Summary

Daily Weather History Graph

Daily Weather History Graph

Search for Another Location

Airport or City:

Trip Planner

Search our weather history database for the weather conditions in past years. The results will help you decide how hot, cold, wet, or windy it might be!

Date:

Astronomy

Dec. 27, 2014 Rise Set
Actual Time 7:23 AM MST 5:00 PM MST
Civil Twilight 6:54 AM MST 5:30 PM MST
Nautical Twilight 6:21 AM MST 6:02 PM MST
Astronomical Twilight 5:50 AM MST 6:34 PM MST
Moon 11:20 AM MST (12/27) 11:45 PM MST (12/27)
Length of Visible Light 10h 35m
Length of Day
9h 37m
Waxing Crescent, 39% of the Moon is Illuminated
Dec 27
Waxing Crescent
Dec 28
First Quarter
Jan 4
Full
Jan 13
Last Quarter
Jan 20
New

Hourly Weather History & Observations

Time (MST) Temp. Windchill Dew Point Humidity Pressure Visibility Wind Dir Wind Speed Gust Speed Precip Events Conditions
12:48 AM 3.2 °F -6.2 °F 1.4 °F 92% 30.02 in 10.0 mi North 4.6 mph - N/A   Scattered Clouds
12:53 AM 5.0 °F -6.9 °F 1.0 °F 84% 30.23 in 10.0 mi North 6.9 mph - N/A   Mostly Cloudy
1:40 AM 9.0 °F - 7.0 °F 92% 30.03 in 10.0 mi Calm Calm - N/A   Overcast
1:53 AM 9.0 °F - 6.1 °F 88% 30.22 in 10.0 mi Calm Calm - N/A   Overcast
2:32 AM 10.9 °F - 7.0 °F 84% 30.05 in 10.0 mi Calm Calm - N/A   Overcast
2:53 AM 10.9 °F - 8.1 °F 88% 30.24 in 10.0 mi Calm Calm - N/A   Overcast
3:45 AM 8.1 °F -0.5 °F 3.9 °F 83% 30.06 in 10.0 mi North 4.6 mph - N/A   Scattered Clouds
3:53 AM 7.0 °F -3.3 °F 1.9 °F 80% 30.27 in 10.0 mi North 5.8 mph - N/A   Partly Cloudy
4:10 AM 7.0 °F -5.7 °F 3.0 °F 84% 30.07 in 10.0 mi North 8.1 mph - N/A   Mostly Cloudy
4:43 AM 7.0 °F -1.7 °F 1.9 °F 80% 30.08 in 10.0 mi North 4.6 mph - N/A   Overcast
4:53 AM 6.1 °F -5.6 °F 1.0 °F 80% 30.31 in 10.0 mi North 6.9 mph - N/A   Overcast
5:01 AM 6.1 °F -5.6 °F 1.0 °F 80% 30.09 in 10.0 mi NNW 6.9 mph - N/A   Overcast
5:23 AM 3.0 °F -6.4 °F -0.9 °F 84% 30.10 in 10.0 mi NNE 4.6 mph - N/A   Scattered Clouds
5:53 AM 3.0 °F -8.0 °F -2.0 °F 80% 30.36 in 10.0 mi NNW 5.8 mph - N/A   Clear
6:53 AM 3.0 °F - -2.0 °F 80% 30.40 in 10.0 mi Calm Calm - N/A   Clear
7:53 AM 3.9 °F -5.3 °F -0.9 °F 80% 30.42 in 10.0 mi NNE 4.6 mph - N/A   Clear
8:53 AM 7.0 °F - 1.9 °F 80% 30.44 in 10.0 mi Calm Calm - N/A   Clear
9:53 AM 12.9 °F - 5.0 °F 71% 30.47 in 10.0 mi Calm Calm - N/A   Clear
10:34 AM 15.1 °F 9.4 °F 5.0 °F 64% 30.22 in 10.0 mi South 3.5 mph - N/A   Mostly Cloudy
10:53 AM 17.1 °F 10.0 °F 6.1 °F 62% 30.47 in 10.0 mi SW 4.6 mph - N/A   Mostly Cloudy
11:03 AM 18.0 °F - 7.0 °F 62% 30.22 in 10.0 mi Calm Calm - N/A   Scattered Clouds
11:53 AM 21.0 °F - 10.9 °F 65% 30.43 in 10.0 mi Calm Calm - N/A   Clear
12:53 PM 19.9 °F 12.1 °F 10.9 °F 68% 30.43 in 10.0 mi ESE 5.8 mph - N/A   Clear
1:53 PM 21.9 °F 17.2 °F 12.9 °F 68% 30.39 in 10.0 mi West 3.5 mph - N/A   Scattered Clouds
2:53 PM 23.0 °F 15.8 °F 10.9 °F 60% 30.38 in 10.0 mi South 5.8 mph - N/A   Scattered Clouds
3:53 PM 23.0 °F 17.0 °F 12.0 °F 63% 30.41 in 10.0 mi SSW 4.6 mph - N/A   Scattered Clouds
4:53 PM 21.0 °F 16.2 °F 12.0 °F 68% 30.43 in 10.0 mi SW 3.5 mph - N/A   Clear
5:53 PM 18.0 °F 11.1 °F 10.9 °F 74% 30.48 in 10.0 mi SSW 4.6 mph - N/A   Clear
6:53 PM 17.1 °F - 10.9 °F 77% 30.51 in 10.0 mi Calm Calm - N/A   Clear
7:53 PM 12.0 °F - 8.1 °F 84% 30.55 in 10.0 mi Calm Calm - N/A   Clear
8:53 PM 6.1 °F -4.3 °F 3.0 °F 87% 30.57 in 10.0 mi NNE 5.8 mph - N/A   Clear
9:53 PM 7.0 °F - 3.9 °F 87% 30.53 in 10.0 mi Calm Calm - N/A   Clear
10:53 PM 7.0 °F -3.3 °F 3.9 °F 87% 30.50 in 10.0 mi North 5.8 mph - N/A   Clear
11:53 PM 1.0 °F -8.7 °F -2.0 °F 87% 30.49 in 10.0 mi NNE 4.6 mph - N/A   Clear